STARLINK-2329, 47873

Orbit data source: Space-Track

STARLINK-2329, 47873 is a payload satellite owned by SpaceX/Seattle (US) in LEO that was launched on Sun, 14 Mar 2021 UTC via an FALCON 9 launch vehicle from the Air Force Eastern Test Range (AFETR). Payload-class satellites include a variety of spacecraft equipped with specific instruments for various scientific and technological missions. These include communications satellites like Starlink; space stations such as the ISS; scientific satellites like the Hubble; Earth observation satellites from companies like Planet Labs, Umbra, and HawkEye 360; GPS; miniature CubeSats for education and research; and military/defense satellites.

Loading next visibility...
Identifier
47873, 2021-021P
Orbit
LEO
Country
Flag of USUS
Related business
Manufacturer
SpaceX/Seattle
Mission
Operational Commercial Communications
Bus & Motor
STARLINK, Unknown motor
Mass
260 kg wet, ~248 kg dry
Launch date (UTC)
2021-03-14 (5 years ago)
Launch vehicle
FALCON 9
Launch site
Air Force Eastern Test Range (AFETR)
Object type
Payload
Rocket body
Debris
Shape & HBR
Box + 1 Pan, 10.1 m
Radar Cross Section
13.562 m², Large (>1 m²)

Expand to show TLE details & history
Last TLE update: 2 days ago

TLE from 2 days ago
0 STARLINK-2329
1 47873U 21021P   26171.32543095  .00001959  00000-0  74860-4 0  9996
2 47873  53.1582 137.9412 0001066  86.2651 273.8472 15.31705753292141
Epoch: 2026-06-20T07:48Z
TLE epoch observation values (Epoch: 2026-06-20T07:48:37.234Z)
Latitude
-0.00002°
Longitude
112.24437°
Altitude
471.574 km
Speed
7.631 km/s
True Right ascension
09h 11m 45s
True Declination
0° 00' 00"
Sunlit
Object was in daylight at epoch
Visualization orbit readout
Latitude
Unknown
Longitude
Unknown
Altitude
Unknown
Speed
Unknown
Apparent Right ascension
Unknown
Apparent Declination
Unknown
Sunlit
N/A
Visualization observer readout
Local Sidereal Time
21:27:56
Azimuth
Unknown
Elevation
Unknown
Doppler factor
Unknown
Orbital elements
Apogee altitude
471.71 km
Perigee altitude
470.25 km
Semi-major axis
6,849.117 km
Eccentricity
0.00011
Inclination
53.1582°
RAAN
137.9412°
Arg. of periapsis
86.2651°
True anomaly
273.83501°
Mean anomaly
273.8472°
Eccentric anomaly
273.84111°
Mean motion
3.82905 °/min
Orbital period
94.02 mins
BSTAR
0.00007486
Loading maneuver chart data...
Computing Atmospheric mass density...

Documentation

Showing up to 5 results
|